"Period start","avg(HW err(1)/warn(2) (#))","avg(Visibility (m))","avg(Weather code (#))","avg(Precip intensity (mm/h))","min(HW err(1)/warn(2) (#))","max(HW err(1)/warn(2) (#))","std(HW err(1)/warn(2) (#))","med(HW err(1)/warn(2) (#))","min(Visibility (m))","max(Visibility (m))","std(Visibility (m))","med(Visibility (m))","min(Weather code (#))","max(Weather code (#))","std(Weather code (#))","med(Weather code (#))","min(Precip intensity (mm/h))","max(Precip intensity (mm/h))","std(Precip intensity (mm/h))","med(Precip intensity (mm/h))"
2013-08-15 00:00:00,2,9578,10,0.00,2,2,0,2,5905,13474,2608,9205,10,10,0,10,0.00,0.00,0.00,0.00
2013-08-15 00:10:00,2,12313,10,0.00,2,2,0,2,7310,20342,3881,12306,10,10,0,10,0.00,0.00,0.00,0.00
2013-08-15 00:20:00,2,10804,1,0.00,2,2,0,2,5214,17207,3969,10245,0,10,3,0,0.00,0.00,0.00,0.00
2013-08-15 00:30:00,2,7714,9,0.00,2,2,0,2,4099,14201,2638,6922,0,10,3,10,0.00,0.00,0.00,0.00
2013-08-15 00:40:00,2,4562,10,0.00,2,2,0,2,3376,6069,845,4460,10,10,0,10,0.00,0.00,0.00,0.00
2013-08-15 00:50:00,2,6114,10,0.00,2,2,0,2,3253,11025,2206,6034,10,10,0,10,0.00,0.00,0.00,0.00
2013-08-15 01:00:00,2,7607,10,0.00,2,2,0,2,3968,13012,3279,6334,10,10,0,10,0.00,0.00,0.00,0.00
2013-08-15 01:10:00,2,11021,10,0.00,2,2,0,2,4072,29971,7771,7879,10,10,0,10,0.00,0.00,0.00,0.00
2013-08-15 01:20:00,2,18897,6,0.00,2,2,0,2,7866,36170,9510,19246,0,10,5,10,0.00,0.00,0.00,0.00
2013-08-15 01:30:00,2,20786,0,0.00,2,2,0,2,10587,42040,9839,17238,0,0,0,0,0.00,0.00,0.00,0.00
2013-08-15 01:40:00,2,15292,0,0.00,2,2,0,2,7079,23984,5705,14681,0,0,0,0,0.00,0.00,0.00,0.00
2013-08-15 01:50:00,2,9179,3,0.00,2,2,0,2,6523,14254,2467,8069,0,10,5,0,0.00,0.00,0.00,0.00
2013-08-15 02:00:00,2,4968,10,0.00,2,2,0,2,3003,8124,1846,4169,10,10,0,10,0.00,0.00,0.00,0.00
2013-08-15 02:10:00,2,3741,10,0.00,2,2,0,2,2578,5540,804,3484,10,10,0,10,0.00,0.00,0.00,0.00
2013-08-15 02:20:00,2,4874,10,0.00,2,2,0,2,2802,9322,1647,4700,10,10,0,10,0.00,0.00,0.00,0.00
2013-08-15 02:30:00,2,5790,10,0.00,2,2,0,2,2887,15956,3796,3722,10,10,0,10,0.00,0.00,0.00,0.00
2013-08-15 02:40:00,2,5467,10,0.00,2,2,0,2,3025,9262,2005,5146,10,10,0,10,0.00,0.00,0.00,0.00
2013-08-15 02:50:00,2,3224,51,0.42,2,2,0,2,2283,5140,780,3007,10,61,20,61,0.00,1.05,0.39,0.30
2013-08-15 03:00:00,2,4738,51,0.27,2,2,0,2,2995,9346,1793,4246,41,61,6,51,0.00,1.10,0.31,0.15
2013-08-15 03:10:00,2,6625,10,0.00,2,2,0,2,4729,10892,1852,5936,10,10,0,10,0.00,0.00,0.00,0.00
2013-08-15 03:20:00,2,9258,10,0.00,2,2,0,2,5735,13127,2281,9292,10,10,0,10,0.00,0.00,0.00,0.00
2013-08-15 03:30:00,2,20603,6,0.00,2,2,0,2,10957,27759,5128,21483,0,10,5,10,0.00,0.00,0.00,0.00
2013-08-15 03:40:00,2,15652,0,0.00,2,2,0,2,12958,17981,1546,16150,0,0,0,0,0.00,0.00,0.00,0.00
2013-08-15 03:50:00,2,14179,0,0.00,2,2,0,2,12203,15443,1064,14444,0,0,0,0,0.00,0.00,0.00,0.00
2013-08-15 04:00:00,2,12800,0,0.00,2,2,0,2,10042,16453,2379,11950,0,0,0,0,0.00,0.00,0.00,0.00
2013-08-15 04:10:00,2,21877,0,0.00,2,2,0,2,18087,26548,2303,22342,0,0,0,0,0.00,0.00,0.00,0.00
2013-08-15 04:20:00,2,29205,0,0.00,2,2,0,2,24391,33287,2652,29290,0,0,0,0,0.00,0.00,0.00,0.00
2013-08-15 04:30:00,2,29466,0,0.00,2,2,0,2,23184,34853,3330,28938,0,0,0,0,0.00,0.00,0.00,0.00
2013-08-15 04:40:00,2,38924,0,0.00,2,2,0,2,29932,44904,4303,38968,0,0,0,0,0.00,0.00,0.00,0.00
2013-08-15 04:50:00,2,32529,0,0.00,2,2,0,2,25788,39209,4032,33417,0,0,0,0,0.00,0.00,0.00,0.00
2013-08-15 05:00:00,2,36047,0,0.00,2,2,0,2,26841,45409,4669,37059,0,0,0,0,0.00,0.00,0.00,0.00
2013-08-15 05:10:00,2,39341,0,0.00,2,2,0,2,32812,49734,5211,38523,0,0,0,0,0.00,0.00,0.00,0.00
2013-08-15 05:20:00,2,38353,0,0.00,2,2,0,2,32854,47991,4004,38030,0,0,0,0,0.00,0.00,0.00,0.00
2013-08-15 05:30:00,2,37926,0,0.00,2,2,0,2,31843,42272,3835,39775,0,0,0,0,0.00,0.00,0.00,0.00
2013-08-15 05:40:00,2,40848,0,0.00,2,2,0,2,36864,46438,2954,40175,0,0,0,0,0.00,0.00,0.00,0.00
2013-08-15 05:50:00,2,38317,0,0.00,2,2,0,2,29054,45416,5486,38367,0,0,0,0,0.00,0.00,0.00,0.00
2013-08-15 06:00:00,2,40095,0,0.00,2,2,0,2,31515,46473,5193,39974,0,0,0,0,0.00,0.00,0.00,0.00
2013-08-15 06:10:00,2,37871,0,0.00,2,2,0,2,32479,47630,4190,36816,0,0,0,0,0.00,0.00,0.00,0.00
2013-08-15 06:20:00,2,35614,0,0.00,2,2,0,2,28514,44126,4409,35138,0,0,0,0,0.00,0.00,0.00,0.00
2013-08-15 06:30:00,2,39554,0,0.00,2,2,0,2,32771,44576,3604,39813,0,0,0,0,0.00,0.00,0.00,0.00
2013-08-15 06:40:00,2,39549,0,0.00,2,2,0,2,32379,46807,4460,39598,0,0,0,0,0.00,0.00,0.00,0.00
2013-08-15 06:50:00,2,36967,0,0.00,2,2,0,2,29076,49245,5826,36350,0,0,0,0,0.00,0.00,0.00,0.00
2013-08-15 07:00:00,2,39552,0,0.00,2,2,0,2,33058,46844,4380,39488,0,0,0,0,0.00,0.00,0.00,0.00
2013-08-15 07:10:00,2,38129,0,0.00,2,2,0,2,32983,46308,3566,38301,0,0,0,0,0.00,0.00,0.00,0.00
2013-08-15 07:20:00,2,39555,0,0.00,2,2,0,2,29356,46782,5339,39337,0,0,0,0,0.00,0.00,0.00,0.00
2013-08-15 07:30:00,2,38944,0,0.00,2,2,0,2,30707,48797,5718,38950,0,0,0,0,0.00,0.00,0.00,0.00
2013-08-15 07:40:00,2,40144,0,0.00,2,2,0,2,33237,49695,4521,39312,0,0,0,0,0.00,0.00,0.00,0.00
2013-08-15 07:50:00,2,43483,0,0.00,2,2,0,2,38519,49462,3870,42652,0,0,0,0,0.00,0.00,0.00,0.00
2013-08-15 08:00:00,2,40173,0,0.00,2,2,0,2,29609,47517,4926,41638,0,0,0,0,0.00,0.00,0.00,0.00
2013-08-15 08:10:00,2,43751,0,0.00,2,2,0,2,36797,47141,3048,44320,0,0,0,0,0.00,0.00,0.00,0.00
2013-08-15 08:20:00,2,45107,0,0.00,2,2,0,2,37271,50000,4442,46557,0,0,0,0,0.00,0.00,0.00,0.00
2013-08-15 08:30:00,2,39960,0,0.00,2,2,0,2,32814,46261,3301,40266,0,0,0,0,0.00,0.00,0.00,0.00
2013-08-15 08:40:00,2,39371,0,0.00,2,2,0,2,28684,50000,6494,39251,0,0,0,0,0.00,0.00,0.00,0.00
2013-08-15 08:50:00,2,37044,0,0.00,2,2,0,2,28221,44893,4879,37750,0,0,0,0,0.00,0.00,0.00,0.00
2013-08-15 09:00:00,2,39425,0,0.00,2,2,0,2,30474,47588,5225,38879,0,0,0,0,0.00,0.00,0.00,0.00
2013-08-15 09:10:00,2,35622,0,0.00,2,2,0,2,30762,39625,3426,36068,0,0,0,0,0.00,0.00,0.00,0.00
2013-08-15 09:20:00,2,36934,0,0.00,2,2,0,2,31873,42472,3528,36867,0,0,0,0,0.00,0.00,0.00,0.00
2013-08-15 09:30:00,2,36173,0,0.00,2,2,0,2,32253,40771,2754,35128,0,0,0,0,0.00,0.00,0.00,0.00
2013-08-15 09:40:00,2,39774,0,0.00,2,2,0,2,33241,48894,4353,40367,0,0,0,0,0.00,0.00,0.00,0.00
2013-08-15 09:50:00,2,39655,0,0.00,2,2,0,2,34376,43891,3306,40195,0,0,0,0,0.00,0.00,0.00,0.00
2013-08-15 10:00:00,2,41314,0,0.00,2,2,0,2,37326,46897,3167,41299,0,0,0,0,0.00,0.00,0.00,0.00
2013-08-15 10:10:00,2,41230,0,0.00,2,2,0,2,35922,50000,4655,40920,0,0,0,0,0.00,0.00,0.00,0.00
2013-08-15 10:20:00,2,42215,0,0.00,2,2,0,2,34310,49103,4492,43019,0,0,0,0,0.00,0.00,0.00,0.00
2013-08-15 10:30:00,2,44704,0,0.00,2,2,0,2,39588,47952,2513,45071,0,0,0,0,0.00,0.00,0.00,0.00
2013-08-15 10:40:00,2,41665,0,0.00,2,2,0,2,38050,46658,2543,40612,0,0,0,0,0.00,0.00,0.00,0.00
2013-08-15 10:50:00,2,41497,0,0.00,2,2,0,2,37314,48085,3583,39832,0,0,0,0,0.00,0.00,0.00,0.00
2013-08-15 11:00:00,2,44892,0,0.00,2,2,0,2,41280,50000,2921,43550,0,0,0,0,0.00,0.00,0.00,0.00
2013-08-15 11:10:00,2,44355,0,0.00,2,2,0,2,32607,50000,5184,43944,0,0,0,0,0.00,0.00,0.00,0.00
2013-08-15 11:20:00,2,33247,0,0.00,2,2,0,2,27780,41011,3930,31734,0,0,0,0,0.00,0.00,0.00,0.00
2013-08-15 11:30:00,2,39041,0,0.00,2,2,0,2,33809,47340,3934,38526,0,0,0,0,0.00,0.00,0.00,0.00
2013-08-15 11:40:00,2,41789,0,0.00,2,2,0,2,37259,47635,3487,41788,0,0,0,0,0.00,0.00,0.00,0.00
2013-08-15 11:50:00,2,35405,0,0.00,2,2,0,2,32173,41126,2801,34028,0,0,0,0,0.00,0.00,0.00,0.00
2013-08-15 12:00:00,2,40334,0,0.00,2,2,0,2,31519,47179,5106,40873,0,0,0,0,0.00,0.00,0.00,0.00
2013-08-15 12:10:00,2,40966,0,0.00,2,2,0,2,27771,50000,7190,42734,0,0,0,0,0.00,0.00,0.00,0.00
2013-08-15 12:20:00,2,36163,0,0.00,2,2,0,2,30802,40272,2635,35867,0,0,0,0,0.00,0.00,0.00,0.00
2013-08-15 12:30:00,2,37988,0,0.00,2,2,0,2,35407,42190,1859,37782,0,0,0,0,0.00,0.00,0.00,0.00
2013-08-15 12:40:00,2,36860,0,0.00,2,2,0,2,33234,39926,2021,37138,0,0,0,0,0.00,0.00,0.00,0.00
2013-08-15 12:50:00,2,40033,0,0.00,2,2,0,2,32294,48847,4539,40054,0,0,0,0,0.00,0.00,0.00,0.00
2013-08-15 13:00:00,2,36657,0,0.00,2,2,0,2,32111,40926,2751,36968,0,0,0,0,0.00,0.00,0.00,0.00
2013-08-15 13:10:00,2,38456,0,0.00,2,2,0,2,32893,44744,2971,38618,0,0,0,0,0.00,0.00,0.00,0.00
2013-08-15 13:20:00,2,38255,0,0.00,2,2,0,2,32120,46654,4400,37823,0,0,0,0,0.00,0.00,0.00,0.00
2013-08-15 13:30:00,2,38729,0,0.00,2,2,0,2,32057,43322,3548,39214,0,0,0,0,0.00,0.00,0.00,0.00
2013-08-15 13:40:00,2,35329,0,0.00,2,2,0,2,31953,39483,2824,34980,0,0,0,0,0.00,0.00,0.00,0.00
2013-08-15 13:50:00,2,42430,0,0.00,2,2,0,2,36997,47598,3232,42176,0,0,0,0,0.00,0.00,0.00,0.00
2013-08-15 14:00:00,2,43030,0,0.00,2,2,0,2,38680,49693,3680,43369,0,0,0,0,0.00,0.00,0.00,0.00
2013-08-15 14:10:00,2,40234,0,0.00,2,2,0,2,33135,46800,3720,40896,0,0,0,0,0.00,0.00,0.00,0.00
2013-08-15 14:20:00,2,42328,0,0.00,2,2,0,2,36129,46475,3041,42787,0,0,0,0,0.00,0.00,0.00,0.00
2013-08-15 14:30:00,2,39208,0,0.00,2,2,0,2,33179,45726,4737,39457,0,0,0,0,0.00,0.00,0.00,0.00
2013-08-15 14:40:00,2,40277,0,0.00,2,2,0,2,36953,46013,3344,39048,0,0,0,0,0.00,0.00,0.00,0.00
2013-08-15 14:50:00,2,41774,0,0.00,2,2,0,2,33127,48880,4921,42764,0,0,0,0,0.00,0.00,0.00,0.00
2013-08-15 15:00:00,2,40261,0,0.00,2,2,0,2,36093,45772,3079,40477,0,0,0,0,0.00,0.00,0.00,0.00
2013-08-15 15:10:00,2,33968,0,0.00,2,2,0,2,25197,41661,5382,33803,0,0,0,0,0.00,0.00,0.00,0.00
2013-08-15 15:20:00,2,25694,0,0.00,2,2,0,2,20601,30241,2712,25278,0,0,0,0,0.00,0.00,0.00,0.00
2013-08-15 15:30:00,2,32311,0,0.00,2,2,0,2,30413,36487,1752,31666,0,0,0,0,0.00,0.00,0.00,0.00
2013-08-15 15:40:00,2,35895,0,0.00,2,2,0,2,29172,42424,4395,35858,0,0,0,0,0.00,0.00,0.00,0.00
2013-08-15 15:50:00,2,34544,0,0.00,2,2,0,2,30927,39030,2437,34471,0,0,0,0,0.00,0.00,0.00,0.00
2013-08-15 16:00:00,2,38243,0,0.00,2,2,0,2,33554,46472,4628,36285,0,0,0,0,0.00,0.00,0.00,0.00
2013-08-15 16:10:00,2,38201,0,0.00,2,2,0,2,32240,42898,3353,38564,0,0,0,0,0.00,0.00,0.00,0.00
2013-08-15 16:20:00,2,32754,0,0.00,2,2,0,2,24292,38476,4758,34274,0,0,0,0,0.00,0.00,0.00,0.00
2013-08-15 16:30:00,2,26390,0,0.00,2,2,0,2,23561,32458,2396,26080,0,0,0,0,0.00,0.00,0.00,0.00
2013-08-15 16:40:00,2,27303,0,0.00,2,2,0,2,23675,34070,3048,26098,0,0,0,0,0.00,0.00,0.00,0.00
2013-08-15 16:50:00,2,39722,0,0.00,2,2,0,2,33718,44272,3257,40158,0,0,0,0,0.00,0.00,0.00,0.00
2013-08-15 17:00:00,2,35038,0,0.00,2,2,0,2,28923,42438,3368,34818,0,0,0,0,0.00,0.00,0.00,0.00
2013-08-15 17:10:00,2,34322,0,0.00,2,2,0,2,27823,41650,3805,35128,0,0,0,0,0.00,0.00,0.00,0.00
2013-08-15 17:20:00,2,29318,0,0.00,2,2,0,2,26015,36891,3326,28642,0,0,0,0,0.00,0.00,0.00,0.00
2013-08-15 17:30:00,2,31567,0,0.00,2,2,0,2,27467,38873,3309,31166,0,0,0,0,0.00,0.00,0.00,0.00
2013-08-15 17:40:00,2,28846,0,0.00,2,2,0,2,24811,34653,2860,28814,0,0,0,0,0.00,0.00,0.00,0.00
2013-08-15 17:50:00,2,23928,0,0.00,2,2,0,2,21449,28144,1907,23358,0,0,0,0,0.00,0.00,0.00,0.00
2013-08-15 18:00:00,2,35048,0,0.00,2,2,0,2,28456,41319,4248,36122,0,0,0,0,0.00,0.00,0.00,0.00
2013-08-15 18:10:00,2,32567,0,0.00,2,2,0,2,24929,39158,4662,33612,0,0,0,0,0.00,0.00,0.00,0.00
2013-08-15 18:20:00,2,26523,0,0.00,2,2,0,2,23729,31820,2512,25736,0,0,0,0,0.00,0.00,0.00,0.00
2013-08-15 18:30:00,2,26038,0,0.00,2,2,0,2,22144,30788,2536,25856,0,0,0,0,0.00,0.00,0.00,0.00
2013-08-15 18:40:00,2,21703,0,0.00,2,2,0,2,18906,26942,2495,21348,0,0,0,0,0.00,0.00,0.00,0.00
2013-08-15 18:50:00,2,22473,0,0.00,2,2,0,2,19613,29270,2992,21877,0,0,0,0,0.00,0.00,0.00,0.00
2013-08-15 19:00:00,2,25127,0,0.00,2,2,0,2,22068,29630,1885,25086,0,0,0,0,0.00,0.00,0.00,0.00
2013-08-15 19:10:00,2,23171,0,0.00,2,2,0,2,20254,26384,2267,23436,0,0,0,0,0.00,0.00,0.00,0.00
2013-08-15 19:20:00,2,26717,0,0.00,2,2,0,2,22400,31204,2652,26529,0,0,0,0,0.00,0.00,0.00,0.00
2013-08-15 19:30:00,2,23770,0,0.00,2,2,0,2,20468,25647,1386,24115,0,0,0,0,0.00,0.00,0.00,0.00
2013-08-15 19:40:00,2,27418,0,0.00,2,2,0,2,25042,30784,1894,26615,0,0,0,0,0.00,0.00,0.00,0.00
2013-08-15 19:50:00,2,26276,0,0.00,2,2,0,2,22621,31072,2580,27064,0,0,0,0,0.00,0.00,0.00,0.00
2013-08-15 20:00:00,2,28634,0,0.00,2,2,0,2,23890,33755,2849,28904,0,0,0,0,0.00,0.00,0.00,0.00
2013-08-15 20:10:00,2,27639,0,0.00,2,2,0,2,22659,32667,2439,27916,0,0,0,0,0.00,0.00,0.00,0.00
2013-08-15 20:20:00,2,26511,0,0.00,2,2,0,2,23591,30636,1745,26245,0,0,0,0,0.00,0.00,0.00,0.00
2013-08-15 20:30:00,2,23677,0,0.00,2,2,0,2,19905,29896,3042,23414,0,0,0,0,0.00,0.00,0.00,0.00
2013-08-15 20:40:00,2,23426,0,0.00,2,2,0,2,19930,31906,3448,21558,0,0,0,0,0.00,0.00,0.00,0.00
2013-08-15 20:50:00,2,25689,0,0.00,2,2,0,2,22534,28063,1865,25536,0,0,0,0,0.00,0.00,0.00,0.00
2013-08-15 21:00:00,2,27830,0,0.00,2,2,0,2,22945,36513,3771,26958,0,0,0,0,0.00,0.00,0.00,0.00
2013-08-15 21:10:00,2,23330,0,0.00,2,2,0,2,19533,27796,2463,22981,0,0,0,0,0.00,0.00,0.00,0.00
2013-08-15 21:20:00,2,21598,0,0.00,2,2,0,2,18557,25177,2052,21475,0,0,0,0,0.00,0.00,0.00,0.00
2013-08-15 21:30:00,2,26350,0,0.00,2,2,0,2,20223,31238,4434,26496,0,0,0,0,0.00,0.00,0.00,0.00
2013-08-15 21:40:00,2,28388,0,0.00,2,2,0,2,22522,33351,3698,29084,0,0,0,0,0.00,0.00,0.00,0.00
2013-08-15 21:50:00,2,27612,0,0.00,2,2,0,2,20322,38295,5289,27156,0,0,0,0,0.00,0.00,0.00,0.00
2013-08-15 22:00:00,2,18633,0,0.00,2,2,0,2,11877,25413,4499,18708,0,0,0,0,0.00,0.00,0.00,0.00
2013-08-15 22:10:00,2,18315,0,0.00,2,2,0,2,11831,22899,3512,19361,0,0,0,0,0.00,0.00,0.00,0.00
2013-08-15 22:20:00,2,9383,0,0.00,2,2,0,2,7917,11791,1160,9331,0,0,0,0,0.00,0.00,0.00,0.00
2013-08-15 22:30:00,2,9280,8,0.00,2,2,0,2,6566,12571,1699,8748,0,10,4,10,0.00,0.00,0.00,0.00
2013-08-15 22:40:00,2,13085,6,0.00,2,2,0,2,10141,17456,2288,12392,0,10,5,10,0.00,0.00,0.00,0.00
2013-08-15 22:50:00,2,9231,1,0.00,2,2,0,2,6868,12447,2033,8770,0,10,3,0,0.00,0.00,0.00,0.00
2013-08-15 23:00:00,2,6850,10,0.00,2,2,0,2,6178,7507,415,6742,10,10,0,10,0.00,0.00,0.00,0.00
2013-08-15 23:10:00,2,6669,10,0.00,2,2,0,2,4306,7955,1203,7024,10,10,0,10,0.00,0.00,0.00,0.00
2013-08-15 23:20:00,2,7301,10,0.00,2,2,0,2,5138,9046,1205,7756,10,10,0,10,0.00,0.00,0.00,0.00
2013-08-15 23:30:00,2,6070,10,0.00,2,2,0,2,4613,8055,1146,5899,10,10,0,10,0.00,0.00,0.00,0.00
2013-08-15 23:40:00,2,7585,10,0.00,2,2,0,2,4879,9499,1586,7985,10,10,0,10,0.00,0.00,0.00,0.00
2013-08-15 23:50:00,2,8702,10,0.00,2,2,0,2,5726,11798,2125,8446,10,10,0,10,0.00,0.00,0.00,0.00
